RYR812 EIDW-EGPH

Flight info

Callsign RYR812
Flight time 0h 37m
Altitude 25000
Route ROTEV3J ROTEV P600 TUNSO
Aircraft B738/M-SDE2E3FGHIRWXY/LB1

Departure

Time 2026-04-23 20:34
Airport Dublin Airport (EIDW)

Arrival

Time 2026-04-23 21:11
Airport Edinburgh Airport (EGPH)
Time Latitude Longitude Altitude Speed Heading
2026-04-23 20:13 53.43006 -6.24944 249 ft 0 kts
2026-04-23 20:23 53.43000 -6.24944 249 ft 2 kts
2026-04-23 20:23 53.42983 -6.24947 248 ft 2 kts
2026-04-23 20:24 53.42966 -6.24949 248 ft 2 kts
2026-04-23 20:24 53.42949 -6.24930 248 ft 2 kts 290°
2026-04-23 20:24 53.42948 -6.24903 248 ft 2 kts 268°
2026-04-23 20:24 53.42948 -6.24891 248 ft 0 kts 275°
2026-04-23 20:27 53.42948 -6.24892 248 ft 0 kts 275°
2026-04-23 20:27 53.42950 -6.24945 248 ft 8 kts 275°
2026-04-23 20:27 53.42957 -6.25085 248 ft 15 kts 275°
2026-04-23 20:27 53.42956 -6.25257 248 ft 14 kts 249°
2026-04-23 20:28 53.42899 -6.25397 248 ft 14 kts 225°
2026-04-23 20:28 53.42854 -6.25472 248 ft 9 kts 226°
2026-04-23 20:28 53.42786 -6.25589 248 ft 18 kts 226°
2026-04-23 20:28 53.42701 -6.25730 248 ft 13 kts 216°
2026-04-23 20:29 53.42614 -6.25709 248 ft 14 kts 157°
2026-04-23 20:29 53.42512 -6.25732 248 ft 16 kts 226°
2026-04-23 20:29 53.42428 -6.25878 248 ft 19 kts 224°
2026-04-23 20:29 53.42324 -6.26056 248 ft 22 kts 226°
2026-04-23 20:30 53.42267 -6.26287 248 ft 21 kts 273°
2026-04-23 20:30 53.42292 -6.26784 248 ft 21 kts 274°
2026-04-23 20:30 53.42307 -6.27027 248 ft 20 kts 275°
2026-04-23 20:31 53.42319 -6.27267 248 ft 20 kts 275°
2026-04-23 20:31 53.42332 -6.27505 248 ft 20 kts 276°
2026-04-23 20:31 53.42347 -6.27765 248 ft 26 kts 275°
2026-04-23 20:31 53.42366 -6.28100 248 ft 28 kts 276°
2026-04-23 20:32 53.42383 -6.28431 248 ft 28 kts 277°
2026-04-23 20:32 53.42400 -6.28758 248 ft 27 kts 278°
2026-04-23 20:32 53.42405 -6.28997 248 ft 17 kts 250°
2026-04-23 20:32 53.42310 -6.29071 248 ft 15 kts 170°
2026-04-23 20:33 53.42240 -6.28954 248 ft 14 kts 96°
2026-04-23 20:33 53.42225 -6.28667 248 ft 45 kts 96°
2026-04-23 20:33 53.42159 -6.27490 248 ft 125 kts 95°
2026-04-23 20:33 53.42043 -6.25473 561 ft 160 kts 96°
2026-04-23 20:34 53.41926 -6.23397 1573 ft 153 kts 97°
2026-04-23 20:34 53.41823 -6.21467 2399 ft 147 kts 98°
2026-04-23 20:34 53.41701 -6.19388 2881 ft 160 kts 98°
2026-04-23 20:34 53.41937 -6.17093 3297 ft 188 kts 63°
2026-04-23 20:35 53.43157 -6.15405 3802 ft 213 kts 28°
2026-04-23 20:35 53.44880 -6.14464 4417 ft 227 kts 19°
2026-04-23 20:35 53.46717 -6.13632 5035 ft 241 kts 19°
2026-04-23 20:35 53.48645 -6.12742 5593 ft 255 kts 19°
2026-04-23 20:36 53.50731 -6.11772 6148 ft 274 kts 18°
2026-04-23 20:36 53.52935 -6.10747 6897 ft 292 kts 18°
2026-04-23 20:36 53.55304 -6.09645 7650 ft 311 kts 18°
2026-04-23 20:36 53.57825 -6.08470 8418 ft 328 kts 17°
2026-04-23 20:37 53.60440 -6.07252 9166 ft 345 kts 17°
2026-04-23 20:37 53.63440 -6.05857 9927 ft 364 kts 17°
2026-04-23 20:37 53.66562 -6.04401 10738 ft 380 kts 16°
2026-04-23 20:37 53.69852 -6.02863 11740 ft 389 kts 16°
2026-04-23 20:38 53.73150 -6.01318 12756 ft 396 kts 16°
2026-04-23 20:38 53.74256 -6.00799 13092 ft 398 kts 16°
2026-04-23 20:38 53.74390 -6.00737 13134 ft 399 kts 16°
2026-04-23 20:38 53.74477 -6.00696 13161 ft 399 kts 16°
2026-04-23 20:39 53.74621 -6.00628 13206 ft 399 kts 16°
2026-04-23 20:39 53.74714 -6.00585 13235 ft 399 kts 16°
2026-04-23 20:39 53.74785 -6.00551 13257 ft 399 kts 16°
2026-04-23 20:39 53.75079 -6.00413 13348 ft 400 kts 16°
2026-04-23 20:40 53.78210 -5.98939 14294 ft 405 kts 16°
2026-04-23 20:40 53.81363 -5.97453 15296 ft 408 kts 16°
2026-04-23 20:40 53.84588 -5.95931 16281 ft 411 kts 16°
2026-04-23 20:40 53.87833 -5.94392 17196 ft 415 kts 17°
2026-04-23 20:41 53.91061 -5.92858 18086 ft 418 kts 17°
2026-04-23 20:41 53.94370 -5.91284 18967 ft 422 kts 17°
2026-04-23 20:41 53.97662 -5.89716 19780 ft 426 kts 17°
2026-04-23 20:41 54.01029 -5.88108 20580 ft 431 kts 16°
2026-04-23 20:42 54.04386 -5.86501 21341 ft 435 kts 16°
2026-04-23 20:42 54.07826 -5.84853 22083 ft 439 kts 16°
2026-04-23 20:42 54.11303 -5.83185 22782 ft 444 kts 16°
2026-04-23 20:42 54.14773 -5.81520 23484 ft 449 kts 16°
2026-04-23 20:43 54.18300 -5.79825 24079 ft 455 kts 16°
2026-04-23 20:43 54.21925 -5.78079 24549 ft 464 kts 16°
2026-04-23 20:43 54.25568 -5.76321 24843 ft 469 kts 16°
2026-04-23 20:43 54.29272 -5.74532 25143 ft 470 kts 16°
2026-04-23 20:44 54.32937 -5.72759 25377 ft 473 kts 16°
2026-04-23 20:44 54.36663 -5.70952 25378 ft 471 kts 16°
2026-04-23 20:44 54.40315 -5.69179 25380 ft 468 kts 16°
2026-04-23 20:44 54.44027 -5.67374 25383 ft 468 kts 16°
2026-04-23 20:45 54.47903 -5.65484 25394 ft 468 kts 16°
2026-04-23 20:45 54.51738 -5.63610 25393 ft 468 kts 16°
2026-04-23 20:45 54.55618 -5.61660 25396 ft 468 kts 18°
2026-04-23 20:45 54.59435 -5.59168 25399 ft 467 kts 25°
2026-04-23 20:46 54.63018 -5.55802 25400 ft 467 kts 32°
2026-04-23 20:46 54.66398 -5.51956 25401 ft 467 kts 35°
2026-04-23 20:46 54.69750 -5.47835 25399 ft 466 kts 36°
2026-04-23 20:46 54.73038 -5.43690 25402 ft 466 kts 36°
2026-04-23 20:47 54.76268 -5.39611 25212 ft 458 kts 36°
2026-04-23 20:47 54.79504 -5.35545 24949 ft 438 kts 36°
2026-04-23 20:47 54.82347 -5.31991 24644 ft 424 kts 37°
2026-04-23 20:47 54.85101 -5.28561 23977 ft 407 kts 37°
2026-04-23 20:48 54.87748 -5.25270 23212 ft 391 kts 37°
2026-04-23 20:48 54.90267 -5.22145 22663 ft 379 kts 37°
2026-04-23 20:48 54.92796 -5.19002 21800 ft 383 kts 37°
2026-04-23 20:48 54.95289 -5.15903 21346 ft 374 kts 37°
2026-04-23 20:49 54.97759 -5.12830 20822 ft 369 kts 37°
2026-04-23 20:49 55.00411 -5.09528 20034 ft 369 kts 37°
2026-04-23 20:49 55.03032 -5.06263 19637 ft 358 kts 37°
2026-04-23 20:49 55.05529 -5.03145 18786 ft 362 kts 37°
2026-04-23 20:50 55.07907 -5.00165 18335 ft 354 kts 37°
2026-04-23 20:50 55.10086 -4.97000 17711 ft 352 kts 46°
2026-04-23 20:50 55.11803 -4.93024 17383 ft 348 kts 61°
2026-04-23 20:50 55.13052 -4.88614 17392 ft 354 kts 66°
2026-04-23 20:51 55.14218 -4.83951 17391 ft 356 kts 67°
2026-04-23 20:51 55.15358 -4.79277 17390 ft 356 kts 67°
2026-04-23 20:51 55.16488 -4.74646 17391 ft 357 kts 67°
2026-04-23 20:51 55.17678 -4.69789 17393 ft 357 kts 67°
2026-04-23 20:52 55.18842 -4.65058 17388 ft 358 kts 66°
2026-04-23 20:52 55.20002 -4.60347 17394 ft 357 kts 66°
2026-04-23 20:52 55.21143 -4.55706 17394 ft 357 kts 66°
2026-04-23 20:52 55.22299 -4.50998 17403 ft 356 kts 66°
2026-04-23 20:53 55.23433 -4.46366 17402 ft 356 kts 66°
2026-04-23 20:53 55.24583 -4.41660 17403 ft 357 kts 66°
2026-04-23 20:53 55.25732 -4.36949 17400 ft 357 kts 66°
2026-04-23 20:53 55.26778 -4.32654 17404 ft 358 kts 67°
2026-04-23 20:54 55.27760 -4.28610 17403 ft 357 kts 67°
2026-04-23 20:54 55.28970 -4.23614 17405 ft 358 kts 67°
2026-04-23 20:54 55.30184 -4.18590 17406 ft 357 kts 67°
2026-04-23 20:54 55.31377 -4.13645 17408 ft 358 kts 67°
2026-04-23 20:55 55.32595 -4.08581 17406 ft 357 kts 67°
2026-04-23 20:55 55.33805 -4.03541 17405 ft 357 kts 67°
2026-04-23 20:55 55.34987 -3.98605 17408 ft 356 kts 67°
2026-04-23 20:55 55.36107 -3.93922 17411 ft 358 kts 67°
2026-04-23 20:56 55.37240 -3.89170 17410 ft 357 kts 67°
2026-04-23 20:56 55.38371 -3.84419 17415 ft 358 kts 67°
2026-04-23 20:56 55.39487 -3.79717 17404 ft 357 kts 67°
2026-04-23 20:56 55.40596 -3.75036 16900 ft 350 kts 67°
2026-04-23 20:57 55.41677 -3.70462 15915 ft 350 kts 66°
2026-04-23 20:57 55.42765 -3.65848 15496 ft 343 kts 67°
2026-04-23 20:57 55.43832 -3.61313 15200 ft 350 kts 67°
2026-04-23 20:57 55.44916 -3.56701 14633 ft 340 kts 67°
2026-04-23 20:58 55.45938 -3.52344 14075 ft 325 kts 66°
2026-04-23 20:58 55.46930 -3.48102 13758 ft 310 kts 66°
2026-04-23 20:58 55.47881 -3.44022 13492 ft 301 kts 66°
2026-04-23 20:58 55.48791 -3.40115 13175 ft 294 kts 66°
2026-04-23 20:59 55.49824 -3.36302 12614 ft 296 kts 56°
2026-04-23 20:59 55.51512 -3.33438 12219 ft 289 kts 30°
2026-04-23 20:59 55.53552 -3.31525 12018 ft 278 kts 26°
2026-04-23 20:59 55.55558 -3.29714 11662 ft 274 kts 27°
2026-04-23 21:00 55.57504 -3.27874 11285 ft 272 kts 28°
2026-04-23 21:00 55.59442 -3.25984 10898 ft 270 kts 28°
2026-04-23 21:00 55.61333 -3.24120 10537 ft 267 kts 28°
2026-04-23 21:00 55.63234 -3.22244 10148 ft 265 kts 28°
2026-04-23 21:01 55.65139 -3.20366 9686 ft 267 kts 28°
2026-04-23 21:01 55.67012 -3.18521 9365 ft 265 kts 28°
2026-04-23 21:01 55.68960 -3.16862 8975 ft 264 kts 17°
2026-04-23 21:01 55.71037 -3.16682 8613 ft 258 kts 343°
2026-04-23 21:02 55.72786 -3.18608 8366 ft 253 kts 308°
2026-04-23 21:02 55.73597 -3.21883 8198 ft 246 kts 276°
2026-04-23 21:02 55.73682 -3.25364 8044 ft 243 kts 270°
2026-04-23 21:02 55.73679 -3.28896 7848 ft 243 kts 270°
2026-04-23 21:03 55.73677 -3.32373 7727 ft 242 kts 270°
2026-04-23 21:03 55.73674 -3.35890 7583 ft 242 kts 270°
2026-04-23 21:03 55.73671 -3.39402 7451 ft 242 kts 270°
2026-04-23 21:03 55.73669 -3.42859 7311 ft 241 kts 270°
2026-04-23 21:04 55.73667 -3.46277 7184 ft 241 kts 270°
2026-04-23 21:04 55.73665 -3.49245 7065 ft 241 kts 270°
2026-04-23 21:04 55.73661 -3.52177 6961 ft 241 kts 270°
2026-04-23 21:04 55.73657 -3.55123 6842 ft 238 kts 270°
2026-04-23 21:05 55.73653 -3.58011 6722 ft 229 kts 270°
2026-04-23 21:05 55.73666 -3.60799 6569 ft 224 kts 275°
2026-04-23 21:05 55.74130 -3.63355 6301 ft 224 kts 306°
2026-04-23 21:05 55.75248 -3.65146 6152 ft 215 kts 327°
2026-04-23 21:06 55.76545 -3.66523 5772 ft 213 kts 329°
2026-04-23 21:06 55.77786 -3.67792 5520 ft 204 kts 329°
2026-04-23 21:06 55.79007 -3.69044 5214 ft 203 kts 329°
2026-04-23 21:06 55.80444 -3.70443 4950 ft 197 kts 339°
2026-04-23 21:07 55.81969 -3.70547 4740 ft 188 kts 20°
2026-04-23 21:07 55.83290 -3.69311 4384 ft 189 kts 32°
2026-04-23 21:07 55.84477 -3.67558 4006 ft 189 kts 51°
2026-04-23 21:07 55.85360 -3.65352 3702 ft 187 kts 57°
2026-04-23 21:08 55.86152 -3.63107 3396 ft 186 kts 59°
2026-04-23 21:08 55.86936 -3.60829 3089 ft 184 kts 59°
2026-04-23 21:08 55.87711 -3.58578 2782 ft 183 kts 59°
2026-04-23 21:08 55.88482 -3.56328 2484 ft 182 kts 59°
2026-04-23 21:09 55.89236 -3.54132 2186 ft 180 kts 59°
2026-04-23 21:09 55.89980 -3.51960 1895 ft 177 kts 59°
2026-04-23 21:09 55.90721 -3.49790 1609 ft 174 kts 59°
2026-04-23 21:09 55.91433 -3.47709 1319 ft 161 kts 59°
2026-04-23 21:10 55.92073 -3.45836 1094 ft 149 kts 59°
2026-04-23 21:10 55.92679 -3.44057 842 ft 143 kts 59°
2026-04-23 21:10 55.93286 -3.42273 628 ft 144 kts 58°
2026-04-23 21:10 55.93904 -3.40472 394 ft 145 kts 58°
2026-04-23 21:11 55.94521 -3.38649 157 ft 145 kts 58°
2026-04-23 21:11 55.95054 -3.37087 98 ft 104 kts 59°
2026-04-23 21:11 55.95267 -3.36462 101 ft 11 kts 71°
2026-04-23 21:11 55.95227 -3.36386 101 ft 9 kts 147°
2026-04-23 21:12 55.95163 -3.36318 101 ft 8 kts 148°
2026-04-23 21:12 55.95109 -3.36357 101 ft 8 kts 228°
2026-04-23 21:12 55.95044 -3.36546 100 ft 21 kts 237°
2026-04-23 21:12 55.94960 -3.36793 99 ft 14 kts 238°
2026-04-23 21:13 55.94898 -3.36804 100 ft 8 kts 147°
2026-04-23 21:13 55.94841 -3.36780 101 ft 6 kts 179°
2026-04-23 21:13 55.94792 -3.36774 102 ft 5 kts 166°
2026-04-23 21:13 55.94751 -3.36743 103 ft 6 kts 165°
2026-04-23 21:14 55.94667 -3.36735 104 ft 11 kts 179°
2026-04-23 21:14 55.94614 -3.36702 105 ft 6 kts 96°
2026-04-23 21:14 55.94614 -3.36640 106 ft 2 kts 90°
2026-04-23 21:14 55.94614 -3.36631 106 ft 0 kts 89°